P/2015 HG16 ( PanSTARRS )

Japanese version
Home page
Updated on September 23, 2018

---------------------------------------------------------------------

* Profile

Discovery Date April 20, 2015
Magnitude 20.7 mag
Discoverer Pan-STARRS 1 telescope (Haleakala)

* Pictures

* Orbital Elements

Epoch 2014 July 2.0 TT = JDT 2456840.5
T 2014 June 28.96063 TT                                 MPCW
q   3.1317753            (2000.0)            P               Q
n   0.09401259     Peri.   48.15123     -0.26914635     -0.92188620
a   4.7901088      Node    59.52547     +0.75971208     -0.38109597
e   0.3461995      Incl.   18.86855     +0.59194408     +0.06994057
P  10.48
From 38 observations 2015 Mar. 24-2018 July 14, mean residual 0".5.

* Magnitudes Graph

        m1 = 12.5 + 5 log d + 10.0 log r

---------------------------------------------------------------------

The orbital elements are published on M.P.E.C. 2018-S50.
The magnitudes graphs are made with Comet for Windows.

---------------------------------------------------------------------

Copyright(C) Seiichi Yoshida (comet@aerith.net). All rights reserved.